Lexington Weather

Lexington, Massachusetts, USA

34°F
4/16/2021 10:15am 
  • Lexington Conditions: Snow, Fog, Overcast
  • Temperature: 34.0°F / 1.1°CColder 0.3°F than last hour.
  • Dew Point: 32.7°FDecreased 0.4°Fsince last hour.
  • Relative Humidity: 95
  • Wind: Calm, 10-min avg: Calm, gust: None
  • Barometer: 29.49 in Steady
  • Visibility: ½ mile
  • Snow Today: 1.3 in
  •   

Regional Weather Roundup
for Boston / Norton, MA

        
000
ASUS41 KBOX 111405
RWRBOX

REGIONAL WEATHER ROUNDUP
NATIONAL WEATHER SERVICE BOSTON/NORTON MA
1000 AM EDT SUN APR 11 2021

NOTE:  "FAIR" INDICATES FEW OR NO CLOUDS BELOW 12,000 FEET WITH NO 
SIGNIFICANT WEATHER AND/OR OBSTRUCTIONS TO VISIBILITY.

MAZALL-111500-
EASTERN MASSACHUSETTS
  
CITY           SKY/WX    TMP DP  RH WIND       PRES   REMARKS
BOSTON         CLOUDY    47  41  80 N14       29.79S                  
BEVERLY        NOT AVBL                                               
LAWRENCE       CLOUDY    46  41  82 NE16      29.81R                  
BEDFORD        PTSUNNY   50  41  71 NE12      29.77S                  
BLUE HILL        N/A     43  41  93 NE6       29.75S                  
NORWOOD        CLOUDY    49  41  74 NE9       29.78R                  
MARSHFIELD     CLOUDY    46  46 100 VRB7G16   29.77S FOG              
PLYMOUTH       CLOUDY    47  44  90 N16G22    29.75S FOG              
TAUNTON        CLOUDY    47  43  86 N8        29.75S                  
NEW BEDFORD    CLOUDY    49  45  86 N12G21    29.74R                  
$$

MAZALL-111500-
CAPE COD AND THE ISLANDS
  
CITY           SKY/WX    TMP DP  RH WIND       PRES   REMARKS
FALMOUTH       CLOUDY    46  46 100 N10       29.74S FOG              
HYANNIS        FOG       47  46  97 N16G24    29.71S VSB 3/4          
CHATHAM        CLOUDY    50  48  93 N8        29.73S FOG              
PROVINCETOWN   FOG       45  45 100 N12       29.76R VSB 1            
NANTUCKET      FOG       48  48 100 N17       29.71S VSB 3/4          
MARTHAS VNYRD  FOG       50  48  93 N13       29.72S VSB 1            
$$
 
MAZALL-111500-
CENTRAL AND WESTERN MASSACHUSETTS
  
CITY           SKY/WX    TMP DP  RH WIND       PRES   REMARKS
WORCESTER      FOG       47  46  97 E9        29.74S VSB<1/4          
FITCHBURG      CLOUDY    50  45  83 E6        29.78S                  
ORANGE         CLOUDY    52  47  83 E9        29.75R                  
SPRINGFIELD    CLOUDY    59  52  79 E12       29.69F                  
WESTFIELD      CLOUDY    58  53  84 N9        29.70S                  
NORTH ADAMS    SUNNY     61  51  70 E21       29.68S                  
PITTSFIELD     MOSUNNY   65  52  62 NE12      29.66F                  
$$
 
RIZALL-111500-
RHODE ISLAND
  
CITY           SKY/WX    TMP DP  RH WIND       PRES   REMARKS
PROVIDENCE     CLOUDY    51  47  86 NE13      29.74S FOG              
NEWPORT        CLOUDY    50  48  93 N12       29.72S FOG              
BLOCK ISLAND   LGT RAIN  52  51  97 E8        29.72S VSB 1/2          
SMITHFIELD     CLOUDY    48  48 100 NE10      29.75S FOG              
WESTERLY       CLOUDY    54  53  97 NE12      29.70S                  
$$
 
CTZALL-111500-
CONNECTICUT
  
CITY           SKY/WX    TMP DP  RH WIND       PRES   REMARKS
BRADLEY INTL   PTSUNNY   57  54  89 NW5       29.69F                  
HARTFORD       CLOUDY    56  53  90 N8        29.69F FOG              
BRIDGEPORT     FOG       53  52  96 E8        29.68F VSB 1/4          
DANBURY        CLOUDY    57  54  89 SE3       29.68S                  
GROTON         CLOUDY    56  55  97 NE8       29.69S FOG              
NEW HAVEN      FOG       55  54  96 E6        29.69S VSB 1/4          
CHESTER        CLOUDY    55  55 100 E6        29.69S FOG              
MERIDEN        CLOUDY    55  53  93 CALM      29.69S                  
WILLIMANTIC    CLOUDY    57  52  83 NE8       29.71S                  
OXFORD         PTSUNNY   55  55 100 SE7       29.69S FOG              
$$

MEZ002-015-021-024-NHZ003-005-008-011-012-014-VTZ005-008-111500-
NORTHERN NEW ENGLAND
  
CITY           SKY/WX    TMP DP  RH WIND       PRES   REMARKS
PORTLAND ME    CLOUDY    44  41  89 E9        29.85R                  
BANGOR ME      CLOUDY    43  37  79 VRB3      29.88S                  
CONCORD NH     PTSUNNY   54  37  52 E7        29.78F                  
MANCHESTER NH  PTSUNNY   54  39  57 E8        29.78R                  
NASHUA NH      PTSUNNY   53  41  63 VRB5      29.79S                  
PORTSMOUTH NH  CLOUDY    44  39  85 NE14G24   29.83R                  
JAFFREY NH     CLOUDY    47  45  93 VRB5      29.76S                  
KEENE NH       CLOUDY    52  47  83 NE10      29.75S                  
BURLINGTON VT  PTSUNNY   55  42  61 CALM      29.69F                  
MT. WASHINGTON PTSUNNY   41  34  75 NW18        N/A                   
$$

NYZ052-076-111500-
EASTERN NEW YORK
  
CITY           SKY/WX    TMP DP  RH WIND       PRES   REMARKS
ALBANY         PTSUNNY   63  55  75 S8        29.65F                  
NEW YORK CITY  LGT RAIN  53  51  93 NE13      29.64F VSB 1/4          
$$
 
ANZALL-111500-
MARINE OBSERVATIONS
  
STATION/POSITION TIME  TEMP    WIND        PRES    VSBY  WAVE
                       AIR SEA DIR/SP/G                  HT/PER
                 (UTC) (F)     (DEG/KT/KT) (MB)    (MI)  (FT/S)
BOSTON BUOY      1350   44 44   10/ 16/ 19 1008.6R         4/ 9
BUZZARDS BAY     1300           50/  8/  8 1007.4F
NANTUCKET SOUND  1340      47                N/A
MASS BAY-STELLWA 1304                        N/A           4/ 5
ISLE OF SHOALS   1300   43      30/ 18/ 19 1008.7R
S OF BLOCK IS    1326      47                N/A           3/11
$$

......................KEY.........................
  SKY/WX - SKY CONDITION/PRESENT WEATHER
  TMP    - TEMPERATURE IN FAHRENHEIT
  DWPT   - DEWPOINT IN FAHRENHEIT
  RH     - RELATIVE HUMIDITY IN PERCENT
  WIND   - DIRECTION AND SPEED IN MPH
  PRES   - MEAN SEA LEVEL PRESSURE IN INCHES OF HG
  WCI    - WIND CHILL INDEX
  VSB    - VISIBILITY IN MILES
  HX     - HEAT INDEX
  TC     - TEMPERATURE IN CELSIUS
  VRB    - VARIABLE WIND DIRECTION
  N/A    - NOT AVAILABLE
  
      

Other recent Regional Weather Roundups

Fri Apr 16, 10:05am

Fri Apr 16, 9:04am

Fri Apr 16, 8:04am

Fri Apr 16, 7:04am

Fri Apr 16, 6:04am

Fri Apr 16, 5:04am

Fri Apr 16, 4:04am

Fri Apr 16, 3:04am

Fri Apr 16, 2:04am

Fri Apr 16, 1:04am

Fri Apr 16, 12:04am

Thu Apr 15, 11:05pm

Thu Apr 15, 10:04pm

Thu Apr 15, 9:04pm

Thu Apr 15, 8:04pm

Thu Apr 15, 7:05pm

Thu Apr 15, 6:04pm

Thu Apr 15, 5:05pm

Thu Apr 15, 4:04pm

Thu Apr 15, 3:05pm

Thu Apr 15, 2:04pm

Thu Apr 15, 1:05pm

Thu Apr 15, 12:04pm

Thu Apr 15, 11:04am

Thu Apr 15, 10:05am

Thu Apr 15, 9:04am

Thu Apr 15, 8:04am

Thu Apr 15, 7:04am

Thu Apr 15, 6:04am

Thu Apr 15, 5:04am

Thu Apr 15, 4:04am

Thu Apr 15, 3:04am

Thu Apr 15, 2:04am

Thu Apr 15, 1:04am

Thu Apr 15, 12:04am

Wed Apr 14, 11:04pm

Wed Apr 14, 10:04pm

Wed Apr 14, 9:04pm

Wed Apr 14, 8:04pm

Wed Apr 14, 7:04pm

Wed Apr 14, 6:04pm

Wed Apr 14, 5:05pm

Wed Apr 14, 4:04pm

Wed Apr 14, 3:05pm

Wed Apr 14, 2:04pm

Wed Apr 14, 1:05pm

Wed Apr 14, 12:04pm

Wed Apr 14, 11:04am

Wed Apr 14, 10:04am

Wed Apr 14, 9:04am

Wed Apr 14, 8:04am

Wed Apr 14, 7:04am

Wed Apr 14, 6:04am

Wed Apr 14, 5:04am

Wed Apr 14, 4:04am

Wed Apr 14, 3:04am

Wed Apr 14, 2:04am

Wed Apr 14, 1:04am

Wed Apr 14, 12:04am

Tue Apr 13, 11:04pm

Tue Apr 13, 10:05pm

Tue Apr 13, 9:05pm

Tue Apr 13, 8:05pm

Tue Apr 13, 7:04pm

Tue Apr 13, 6:04pm

Tue Apr 13, 5:05pm

Tue Apr 13, 4:04pm

Tue Apr 13, 3:04pm

Tue Apr 13, 2:05pm

Tue Apr 13, 1:04pm

Tue Apr 13, 12:05pm

Tue Apr 13, 11:05am

Tue Apr 13, 10:04am

Tue Apr 13, 9:04am

Tue Apr 13, 8:04am

Tue Apr 13, 7:04am

Tue Apr 13, 6:04am

Tue Apr 13, 5:04am

Tue Apr 13, 4:04am

Tue Apr 13, 3:04am

Tue Apr 13, 2:04am

Tue Apr 13, 1:04am

Tue Apr 13, 12:05am

Mon Apr 12, 11:04pm

Mon Apr 12, 10:04pm

Mon Apr 12, 9:04pm

Mon Apr 12, 8:04pm

Mon Apr 12, 7:05pm

Mon Apr 12, 6:04pm

Mon Apr 12, 5:04pm

Mon Apr 12, 4:04pm

Mon Apr 12, 3:05pm

Mon Apr 12, 2:04pm

Mon Apr 12, 1:05pm

Mon Apr 12, 12:04pm

Mon Apr 12, 11:04am

Mon Apr 12, 10:04am

Mon Apr 12, 9:04am

Mon Apr 12, 8:04am

Mon Apr 12, 7:04am

Mon Apr 12, 6:04am

Mon Apr 12, 5:04am

Mon Apr 12, 4:04am

Mon Apr 12, 3:04am

Mon Apr 12, 2:04am

Mon Apr 12, 1:05am

Mon Apr 12, 12:04am

Sun Apr 11, 11:04pm

Sun Apr 11, 10:04pm

Sun Apr 11, 9:04pm

Sun Apr 11, 8:04pm

Sun Apr 11, 7:04pm

Sun Apr 11, 6:05pm

Sun Apr 11, 5:05pm

Sun Apr 11, 4:04pm

Sun Apr 11, 3:05pm

Sun Apr 11, 2:05pm

Sun Apr 11, 1:05pm

Sun Apr 11, 12:04pm

Sun Apr 11, 11:05am

Sun Apr 11, 9:04am

Sun Apr 11, 8:04am

Sun Apr 11, 7:04am

Sun Apr 11, 6:04am

Sun Apr 11, 5:04am

Sun Apr 11, 4:04am

Sun Apr 11, 3:04am

Sun Apr 11, 2:04am

Sun Apr 11, 1:05am

Sun Apr 11, 12:04am

Sat Apr 10, 11:05pm

Sat Apr 10, 10:04pm

Sat Apr 10, 9:04pm

Sat Apr 10, 8:04pm

Sat Apr 10, 7:05pm

Sat Apr 10, 6:04pm

Sat Apr 10, 5:04pm

Sat Apr 10, 4:04pm

Sat Apr 10, 3:04pm

Sat Apr 10, 2:05pm

Sat Apr 10, 1:04pm

Sat Apr 10, 12:04pm

Sat Apr 10, 11:04am

Sat Apr 10, 10:04am

Sat Apr 10, 9:04am

Sat Apr 10, 8:04am

Sat Apr 10, 7:04am

Sat Apr 10, 6:04am

Sat Apr 10, 5:04am

Sat Apr 10, 4:04am

Sat Apr 10, 3:04am

Sat Apr 10, 2:04am

Sat Apr 10, 1:05am

Sat Apr 10, 12:04am

Fri Apr 9, 11:04pm

Fri Apr 9, 10:05pm

Fri Apr 9, 9:04pm

Fri Apr 9, 8:05pm

Fri Apr 9, 7:05pm

Fri Apr 9, 6:04pm

Fri Apr 9, 5:04pm

Fri Apr 9, 4:05pm

Fri Apr 9, 3:05pm

Fri Apr 9, 2:04pm

Fri Apr 9, 1:04pm

Fri Apr 9, 12:04pm

Fri Apr 9, 11:05am

Meta data:

ID: 1525cd64-7f9a-4163-9987-f20711f45680
Link: https://api.weather.gov/products/1525cd64-7f9a-4163-9987-f20711f45680